NOAA 16 DEB, 41069

Orbit data source: Space-Track

NOAA 16 DEB, 41069 is space debris in SSO originally from a launch on Thu, 21 Sep 2000 UTC launched from the Air Force Western Test Range (AFWTR). Debris objects in space refer to the collection of defunct objects orbiting the Earth. Examples of debris include non-operational satellites, rocket bodies, and fragments generated from explosions, collisions, or faulty payload assembly.

Loading next visibility...
NOAA 16 DEB details
Identifier
41069, 2000-055AC
Orbit
SSO
Last TLE update7 hours ago
Origin
Flag of USNOAA (US)
ManufacturerUnknown
MissionSpacecraft
Bus & MotorUnknown
MassUnknown
Launch date (UTC)
2000-09-21 (24 years ago)
Launch vehicleUnknown
Launch site
Air Force Western Test Range (AFWTR)
Object type
Payload
Rocket body
Debris
Shape & HBRUnknown
Radar Cross SectionSmall (<0.1 m²)

Expand to show TLE details & history

TLE from 7 hours ago
0 NOAA 16 DEB
1 41069U 00055AC  24361.13224847  .00004270  00000-0  12814-2 0  9998
2 41069  98.5815  99.8964 0113404 350.4468   9.4562 14.39585413475102
Epoch: 2024-12-26T03:10Z
Definitive object data (Epoch: 2024-12-26T03:10:26.267Z)
Latitude-0.00008°
Longitude-42.82907°
Altitude682.976 km
Speed7.557 km/s
True Right ascension06h 39m 35s
True Declination0° 00' 00"
Sunlit
Object was in full shadow at TLE epoch
Visualization TLE readout
Latitude62.74856°
Longitude154.41536°
Altitude818.182 km
Speed7.425 km/s
Apparent Right ascension20h 57m 43s
Apparent Declination16° 09' 16"
Sunlit
Object is in daylight
Visualization observer readout
Local Sidereal Time09:43:57
Azimuth13.253° NNE
Elevation-32.904°
Doppler factor1
Orbital elements
Apogee altitude837.91 km
Perigee altitude676.079 km
Semi-major axis7,135.131 km
Eccentricity0.0113404
Inclination98.5815°
RAAN99.8964°
Arg. of periapsis350.4468°
True anomaly9.67273°
Mean anomaly9.4562°
Eccentric anomaly9.56416°
Mean motion3.60114 °/min
BSTAR0.0012814
Orbital period99.97 mins
Loading maneuver chart data...
Loading historical data...
Loading historical data...
Loading historical data...
Loading historical data...
Loading historical data...
Loading historical data...
Loading historical data...

NOAA 16 DEB Visibility forecast

Observer location: undefined°, undefined

Span
Click to sort rows by Start time (UTC) header in descending order
Start Az.
Max El. time (UTC)
Max El. Az.
Max El.
End time (UTC)
End Az.
8 mins2024-12-26 18:46:47.142Z44.816° NE2024-12-26 18:50:47.142Z102.335° ESE24.046°2024-12-26 18:54:47.142Z151.075° SSE
8 mins2024-12-26 20:25:47.142Z349.652° N2024-12-26 20:29:47.142Z277.376° WNW31.68°2024-12-26 20:33:47.142Z225.926° WSW
7 mins2024-12-27 06:00:47.142Z117.974° SE2024-12-27 06:03:47.142Z62.916° ENE26.791°2024-12-27 06:07:47.142Z7.489° NNE
6 mins2024-12-27 07:39:47.142Z218.769° SW2024-12-27 07:42:47.142Z272.041° WNW23.917°2024-12-27 07:45:47.142Z316.528° NNW
|